Oelwein, IA

9:54 AM CST on December 14, 2019 (GMT -0600)
Oelwein Municipal

Weather History for KOLZ - October, 2019

Change the Weather History Date:

Thursday, October 31, 2019

  Actual Average Record
Temperature  
Mean Temperature 28 °F -  
Max Temperature 32 °F 55 °F 83 °F (1950)
Min Temperature 23 °F 38 °F -99 °F (2001)
Degree Days  
Heating Degree Days 38    
Moisture  
Dew Point 23 °F    
Average Humidity 84    
Maximum Humidity 100    
Minimum Humidity 64    
Precipitation  
Precipitation 0.00 in - - ()
Sea Level Pressure  
Sea Level Pressure 30.07 in    
Wind  
Wind Speed 13 mph (NW)    
Max Wind Speed 21 mph    
Max Gust Speed 24 mph    
Visibility 9 miles    
Events      
Averages and records for this station are not official NWS values.
T = Trace of Precipitation, MM = Missing Value Source: NWS Daily Summary

Daily Weather History Graph

Daily Weather History Graph

Search for Another Location

Airport or City:

Astronomy

Oct. 31, 2019 Rise Set
Actual Time 7:40 AM CDT 6:02 PM CDT
Civil Twilight 7:10 AM CDT 6:31 PM CDT
Nautical Twilight 6:37 AM CDT 7:04 PM CDT
Astronomical Twilight 6:04 AM CDT 7:37 PM CDT
Moon 11:33 AM CDT (10/31) 8:54 PM CDT (10/31)
Length of Visible Light 11h 20m
Length of Day
10h 21m
Waxing Crescent, 16% of the Moon is Illuminated
Oct 31
Waxing Crescent
Nov 4
First Quarter
Nov 12
Full
Nov 19
Last Quarter
Nov 26
New

Hourly Weather History & Observations

Time (CDT) Temp. Windchill Dew Point Humidity Pressure Visibility Wind Dir Wind Speed Gust Speed Precip Events Conditions
12:15 AM 28.4 °F 18.5 °F 21.2 °F 74% 30.12 in 10.0 mi North 11.5 mph 17.3 mph N/A   Overcast
12:35 AM 28.4 °F 18.5 °F 23.0 °F 80% 30.12 in 10.0 mi North 11.5 mph - N/A   Overcast
12:55 AM 28.4 °F 17.5 °F 23.0 °F 80% 30.11 in 9.0 mi North 13.8 mph - N/A   Overcast
1:15 AM 28.4 °F 17.5 °F 23.0 °F 80% 30.11 in 8.0 mi North 13.8 mph 19.6 mph N/A   Overcast
1:35 AM 28.4 °F 16.6 °F 23.0 °F 80% 30.10 in 10.0 mi North 16.1 mph - N/A   Overcast
1:55 AM 28.4 °F 17.0 °F 24.8 °F 86% 30.10 in 10.0 mi NNW 15.0 mph - N/A   Overcast
2:15 AM 26.6 °F 14.7 °F 26.6 °F 100% 30.10 in 4.0 mi NNW 15.0 mph - N/A   Overcast
2:35 AM 26.6 °F 15.2 °F 26.6 °F 100% 30.09 in 5.0 mi NNW 13.8 mph - N/A   Overcast
2:55 AM 26.6 °F 15.2 °F 26.6 °F 100% 30.08 in 2.0 mi NNW 13.8 mph - N/A   Overcast
3:15 AM 26.6 °F 17.5 °F 26.6 °F 100% 30.08 in 2.0 mi NNW 9.2 mph 16.1 mph N/A   Overcast
3:55 AM 26.6 °F 16.8 °F 26.6 °F 100% 30.07 in 5.0 mi NNW 10.4 mph - N/A   Overcast
4:15 AM 26.6 °F 16.2 °F 26.6 °F 100% 30.06 in 3.0 mi NNW 11.5 mph - N/A   Overcast
4:35 AM 26.6 °F 18.2 °F 26.6 °F 100% 30.06 in 2.0 mi NNW 8.1 mph - N/A   Overcast
4:55 AM 26.6 °F 15.7 °F 26.6 °F 100% 30.05 in 4.0 mi NNW 12.7 mph - N/A   Overcast
5:15 AM 26.6 °F 16.2 °F 26.6 °F 100% 30.05 in 7.0 mi NNW 11.5 mph - N/A   Overcast
5:35 AM 26.6 °F 16.8 °F 24.8 °F 93% 30.05 in 10.0 mi NNW 10.4 mph - N/A   Overcast
5:55 AM 28.4 °F 18.5 °F 24.8 °F 86% 30.05 in 10.0 mi NNW 11.5 mph - N/A   Overcast
6:15 AM 26.6 °F 14.7 °F 23.0 °F 86% 30.04 in 10.0 mi NNW 15.0 mph - N/A   Overcast
6:35 AM 26.6 °F 15.7 °F 23.0 °F 86% 30.04 in 10.0 mi NNW 12.7 mph - N/A   Overcast
6:55 AM 26.6 °F 14.7 °F 23.0 °F 86% 30.04 in 10.0 mi NNW 15.0 mph 20.7 mph N/A   Overcast
7:15 AM 26.6 °F 15.2 °F 23.0 °F 86% 30.04 in 10.0 mi NNW 13.8 mph - N/A   Overcast
7:35 AM 26.6 °F 14.7 °F 23.0 °F 86% 30.04 in 10.0 mi NNW 15.0 mph 20.7 mph N/A   Overcast
7:55 AM 26.6 °F 15.2 °F 23.0 °F 86% 30.05 in 10.0 mi NNW 13.8 mph - N/A   Overcast
8:15 AM 26.6 °F 14.7 °F 23.0 °F 86% 30.05 in 10.0 mi NNW 15.0 mph - N/A   Partly Cloudy
8:35 AM 26.6 °F 15.2 °F 23.0 °F 86% 30.05 in 10.0 mi NNW 13.8 mph - N/A   Clear
8:55 AM 26.6 °F 14.3 °F 23.0 °F 86% 30.06 in 10.0 mi NNW 16.1 mph - N/A   Clear
9:15 AM 26.6 °F 14.7 °F 23.0 °F 86% 30.06 in 10.0 mi NNW 15.0 mph 21.9 mph N/A   Clear
9:35 AM 26.6 °F 13.8 °F 21.2 °F 80% 30.06 in 10.0 mi NNW 17.3 mph 24.2 mph N/A   Partly Cloudy
9:55 AM 26.6 °F 13.4 °F 21.2 °F 80% 30.06 in 10.0 mi NNW 18.4 mph - N/A   Scattered Clouds
10:15 AM 26.6 °F 13.8 °F 21.2 °F 80% 30.06 in 10.0 mi NNW 17.3 mph 23.0 mph N/A   Mostly Cloudy
10:35 AM 26.6 °F 13.8 °F 21.2 °F 80% 30.06 in 10.0 mi NNW 17.3 mph - N/A   Mostly Cloudy
10:55 AM 26.6 °F 12.7 °F 21.2 °F 80% 30.06 in 10.0 mi NW 20.7 mph - N/A   Mostly Cloudy
11:15 AM 28.4 °F 16.6 °F 21.2 °F 74% 30.06 in 10.0 mi NW 16.1 mph 23.0 mph N/A   Overcast
11:35 AM 28.4 °F 15.1 °F 21.2 °F 74% 30.07 in 10.0 mi NW 20.7 mph - N/A   Overcast
11:55 AM 28.4 °F 15.8 °F 21.2 °F 74% 30.07 in 10.0 mi NW 18.4 mph 24.2 mph N/A   Overcast
12:15 PM 28.4 °F 15.8 °F 21.2 °F 74% 30.07 in 10.0 mi NW 18.4 mph - N/A   Overcast
1:15 PM 28.4 °F 16.6 °F 21.2 °F 74% 30.06 in 10.0 mi NW 16.1 mph - N/A   Overcast
1:35 PM 28.4 °F 15.8 °F 21.2 °F 74% 30.06 in 10.0 mi NW 18.4 mph - N/A   Overcast
1:55 PM 30.2 °F 19.8 °F 23.0 °F 75% 30.06 in 10.0 mi WNW 13.8 mph 20.7 mph N/A   Overcast
2:15 PM 30.2 °F 18.5 °F 23.0 °F 75% 30.05 in 10.0 mi WNW 17.3 mph - N/A   Overcast
2:55 PM 32.0 °F 22.5 °F 23.0 °F 69% 30.06 in 10.0 mi NW 12.7 mph 21.9 mph N/A   Overcast
3:15 PM 32.0 °F 22.1 °F 23.0 °F 69% 30.05 in 10.0 mi WNW 13.8 mph - N/A   Scattered Clouds
3:35 PM 32.0 °F 21.2 °F 21.2 °F 64% 30.05 in 10.0 mi WNW 16.1 mph - N/A   Partly Cloudy
3:55 PM 32.0 °F 22.1 °F 21.2 °F 64% 30.06 in 10.0 mi NW 13.8 mph - N/A   Partly Cloudy
4:15 PM 32.0 °F 22.5 °F 21.2 °F 64% 30.06 in 10.0 mi WNW 12.7 mph 19.6 mph N/A   Partly Cloudy
4:55 PM 32.0 °F 22.5 °F 21.2 °F 64% 30.06 in 10.0 mi WNW 12.7 mph 18.4 mph N/A   Clear
5:15 PM 32.0 °F 22.5 °F 21.2 °F 64% 30.07 in 10.0 mi West 12.7 mph - N/A   Clear
5:35 PM 32.0 °F 24.2 °F 21.2 °F 64% 30.07 in 10.0 mi WNW 9.2 mph - N/A   Clear
5:55 PM 30.2 °F 23.4 °F 21.2 °F 69% 30.07 in 10.0 mi WNW 6.9 mph - N/A   Clear
6:15 PM 28.4 °F 22.2 °F 23.0 °F 80% 30.08 in 10.0 mi West 5.8 mph - N/A   Clear
6:35 PM 26.6 °F 19.1 °F 23.0 °F 86% 30.08 in 10.0 mi West 6.9 mph - N/A   Clear
6:55 PM 26.6 °F 20.0 °F 23.0 °F 86% 30.09 in 10.0 mi West 5.8 mph - N/A   Clear
7:15 PM 26.6 °F 20.0 °F 23.0 °F 86% 30.09 in 10.0 mi West 5.8 mph - N/A   Clear
7:35 PM 26.6 °F 20.0 °F 23.0 °F 86% 30.09 in 10.0 mi SW 5.8 mph - N/A   Clear
7:55 PM 26.6 °F 20.0 °F 23.0 °F 86% 30.09 in 10.0 mi WSW 5.8 mph - N/A   Clear
8:15 PM 24.8 °F 17.9 °F 23.0 °F 93% 30.10 in 10.0 mi SW 5.8 mph - N/A   Clear
8:35 PM 23.0 °F 15.8 °F 23.0 °F 100% 30.10 in 10.0 mi SW 5.8 mph - N/A   Clear
8:55 PM 24.8 °F 17.9 °F 23.0 °F 93% 30.10 in 10.0 mi SW 5.8 mph - N/A   Clear
9:15 PM 24.8 °F 19.1 °F 23.0 °F 93% 30.10 in 10.0 mi SW 4.6 mph - N/A   Clear
9:35 PM 24.8 °F 17.9 °F 23.0 °F 93% 30.10 in 10.0 mi SSW 5.8 mph - N/A   Clear
9:55 PM 24.8 °F 16.9 °F 23.0 °F 93% 30.11 in 10.0 mi SSW 6.9 mph - N/A   Clear
10:15 PM 24.8 °F 16.9 °F 23.0 °F 93% 30.11 in 10.0 mi SSW 6.9 mph - N/A   Clear
10:35 PM 24.8 °F 17.9 °F 23.0 °F 93% 30.10 in 10.0 mi South 5.8 mph - N/A   Clear
10:55 PM 24.8 °F 16.9 °F 23.0 °F 93% 30.11 in 10.0 mi SSW 6.9 mph - N/A   Clear
11:15 PM 24.8 °F 16.1 °F 24.8 °F 100% 30.10 in 10.0 mi SSW 8.1 mph - N/A   Clear
11:35 PM 24.8 °F 16.1 °F 23.0 °F 93% 30.10 in 10.0 mi SSW 8.1 mph - N/A   Clear
11:55 PM 24.8 °F 16.9 °F 23.0 °F 93% 30.09 in 10.0 mi SSW 6.9 mph - N/A   Clear